User: anonymous   Login
Location: Unspecified
(0.0000°N, 0.0000°E)
Time: 23:05:38
(UTC+00:00)
Language:

STARLINK-6133 - Orbit

View from above orbital plane
View from above orbital plane
View from above satellite
View from above satellite

Ground track
Ground track

The orbit is defined by the following mean orbital elements,

1 57134U          26145.56088406 +.00000000 +00000-0 +13583-4 0 00002
2 57134  43.0028 188.8951 0001069 296.7954  63.2788 15.27572435    02
Epoch (UTC): 25 May 2026 13:27:40
Eccentricity: 0.0001069
inclination: 43.0028°
perigee height: 482 km
apogee height: 484 km
right ascension of ascending node: 188.8951°
argument of perigee: 296.7954°
revolutions per day: 15.27572435
mean anomaly at epoch: 63.2788°

The dashed part of the orbit path shows where the satellite is in the earth's shadow,  

DLR